Current weather by "City, St" or "zip code"  
 
Advertise Here

Current Conditions: Indianapolis, Eagle Creek Airpark, IN

Overcast


30.0 F

Last Updated on Jan 27 2021, 1:53 pm EST
Humidity: 72%
Wind Speed: NE 6.9 mph
Barometer 30.20 in
Dewpoint: 21.9 F
Visibility: 10.00 mi
Precip: --
Heat Index: NA
Wind Chill: 23 F
Current conditions at:

Indianapolis, Eagle Creek Airpark, IN (KEYE)

Lat: 39.825 Lon: 86.29583

Local Radar Image active severe weather and emergency alerts image image weather storm and storm spotter reports image weather observation monitoring service image
Local
Radar
Active
Alerts
Storm Reports Obs
Monitoring

Sign-up For Email & Text Message Weather Alert Notification Services


Advertise Here

Observation History for Indianapolis, Eagle Creek Airpark, IN


Time Wind
(mph)
Vis
(mi)
Weather Precip (in) Temperature (F) Relative
Humidity
Wind
Chill
(F)
Heat
Index
(F)
Pressure
Air Dwpt altimeter
(in)
sea level
(mb)
Rmks
1:53 pm EST NE 6.9 10.00 Overcast -- 30.0 21.9 72% 23 NA 30.20 1023.6
12:53 pm EST E 6.9 10.00 Overcast -- 29.0 21.9 75% 22 NA 30.22 1024.2
11:53 am EST NE 6.9 10.00 Overcast -- 29.0 21.9 75% 22 NA 30.26 1025.5
10:53 am EST NE 5.8 10.00 Overcast -- 29.0 21.9 75% 23 NA 30.26 1025.5
9:53 am EST NE 11.5 10.00 Overcast -- 29.0 21.9 75% 19 NA 30.22 1024.2
8:53 am EST NE 10.4 10.00 Overcast -- 29.0 21.9 75% 20 NA 30.21 1023.8
7:53 am EST NE 5.8 10.00 Overcast -- 29.0 23.0 78% 23 NA 30.20 1023.6
6:53 am EST NE 8.1 10.00 Overcast -- 29.0 21.9 75% 21 NA 30.21 1023.9
5:53 am EST E 11.5 10.00 Overcast -- 29.0 23.0 78% 19 NA 30.14 1021.6
4:53 am EST NE 5.8 10.00 Overcast -- 30.0 23.0 75% 24 NA 30.17 1022.6
3:53 am EST N 4.6 10.00 Overcast -- 30.0 24.1 79% 25 NA 30.19 1023.2
2:53 am EST N 8.1 10.00 Overcast -- 31.0 25.0 79% 24 NA 30.17 1022.5
1:53 am EST N 10.4 10.00 Overcast -- 31.0 26.1 82% 22 NA 30.14 1021.3
12:53 am EST N 5.8 10.00 Overcast -- 31.0 27.0 85% 25 NA 30.13 1021.1
11:53 pm EST NW 3.5 10.00 Overcast -- 31.0 26.1 82% NA NA 30.12 1020.6
10:53 pm EST NW 8.1 10.00 Overcast -- 32.0 25.0 75% 25 NA 30.08 1019.4
9:53 pm EST N 8.1 10.00 Overcast -- 32.0 26.1 79% 25 NA 30.05 1018.4
8:53 pm EST NW 8.1 10.00 Overcast -- 32.0 27.0 82% 25 NA 30.04 1017.9
7:53 pm EST NW 10.4 10.00 Overcast -- 32.0 27.0 82% 24 NA 30.02 1017.1
6:53 pm EST NW 9.2 10.00 Overcast -- 33.0 28.0 82% 25 NA 29.98 1016.0
5:53 pm EST NW 13.8 10.00 Overcast -- 33.0 28.0 82% 23 NA 29.95 1014.9
4:53 pm EST NW 16.1 G 24.2 10.00 Overcast -- 34.0 28.9 82% 24 NA 29.92 1013.8
3:53 pm EST W 9.2 G 19.6 10.00 Overcast -- 35.0 30.0 82% 28 NA 29.88 1012.4
2:53 pm EST W 8.1 G 21.9 10.00 Overcast -- 35.0 30.9 85% 28 NA 29.84 1011.0

Regional Weather Observation


Crawfordsville Municipal Airport, IN (KCFJ)

Overcast
27.0 F

Frankfort Municipal Airport, IN (KFKR)

Overcast
27.0 F

Indianapolis, Eagle Creek Airpark, IN (KEYE)

Overcast
30.0 F

Indianapolis International Airport, IN (KIND)

Overcast
30.0 F

Putnam County Regional Airport, IN (KGPC)

Overcast
29.0 F

Putnam County Regional Airport, IN (KGPC)

Overcast
29.0 F